Hourly Data Report for October 29, 2014

All times are specified in Local Standard Time (LST). Add 1 hour to adjust for Daylight Saving Time where and when it is observed.

MONCTON INTL A
NEW BRUNSWICK

46°06'44.000" N
64°40'43.000" W
70.70 m
8103201
71705
YQM

Download Data

Hourly Data (October 2014)
Hourly Data Report for October 29, 2014
Temp Definition
°C
Dew Point Temp Definition
°C
Rel Hum Definition
%
Wind Dir Definition
10's deg

Wind Spd Definition
km/h
Visibility Definition
km
Stn Press Definition
kPa
Hmdx Definition


Wind Chill Definition


Weather Definition


TIME
00:00 Legend Double Dagger 4.2 3.0 92 11 10 24.1 101.03     LegendNANA
01:00 Legend Double Dagger 4.8 3.3 90 10 13 24.1 100.98     LegendNANA
02:00 Legend Double Dagger 5.4 4.1 91 13 15 24.1 100.92     Mostly Cloudy
03:00 Legend Double Dagger 5.8 4.3 90 14 18 24.1 100.85     LegendNANA
04:00 Legend Double Dagger 6.8 5.1 89 15 13 24.1 100.82     LegendNANA
05:00 Legend Double Dagger 7.6 5.6 87 15 14 24.1 100.77     Mostly Cloudy
06:00 Legend Double Dagger 7.9 5.7 86 15 19 24.1 100.71     LegendNANA
07:00 Legend Double Dagger 8.3 6.1 86 15 18 24.1 100.64     LegendNANA
08:00 Legend Double Dagger 9.0 6.8 86 15 16 24.1 100.60     Cloudy
09:00 Legend Double Dagger 9.9 7.3 84 14 19 24.1 100.49     LegendNANA
10:00 Legend Double Dagger 11.1 8.4 83 16 22 24.1 100.38     LegendNANA
11:00 Legend Double Dagger 12.3 9.5 83 16 27 24.1 100.26     Cloudy
12:00 Legend Double Dagger 13.4 10.6 83 17 27 24.1 100.15     LegendNANA
13:00 Legend Double Dagger 15.0 12.0 82 19 20 24.1 100.05     LegendNANA
14:00 Legend Double Dagger 16.0 12.8 81 18 15 24.1 99.96     Cloudy
15:00 Legend Double Dagger 16.3 13.3 82 18 19 19.3 99.89     LegendNANA
16:00 Legend Double Dagger 16.7 13.8 83 19 14 19.3 99.86     LegendNANA
17:00 Legend Double Dagger 16.8 14.1 84 21 17 19.3 99.83     Cloudy
18:00 Legend Double Dagger 16.3 13.8 85 21 18 24.1 99.81     LegendNANA
19:00 Legend Double Dagger 15.6 13.1 85 21 19 24.1 99.80     LegendNANA
20:00 Legend Double Dagger 14.8 12.7 87 23 18 24.1 99.79     Cloudy
21:00 Legend Double Dagger 14.3 12.7 90 20 12 24.1 99.72     LegendNANA
22:00 Legend Double Dagger 14.4 12.6 89 21 11 16.1 99.64     LegendNANA
23:00 Legend Double Dagger 14.3 12.4 88 24 16 24.1 99.61     Mostly Cloudy

Notes on Data Quality.

Legend

  • E = Estimated
  • M = Missing
  • NA = Not Available
  • ‡ = Partner data that is not subject to review by the National Climate Archives
Date modified: